User: anonymous   Login
Location: Unspecified
(0.0000°N, 0.0000°E)
Time: 19:40:34
(UTC+02:00)
Language:

CZ-2C R/B - Orbit

View from above orbital plane
View from above orbital plane
View from above satellite
View from above satellite

Ground track
Ground track

The orbit data is extracted from the following two-line orbital elements,

1 28480U 04046B   17085.93004623 +.00000005 +00000-0 +16889-4 0  9995
2 28480 098.1918 187.4374 0143260 107.2334 026.3645 14.25630827642499
Epoch (UTC): 26 March 2017 22:19:15
Eccentricity: 0.0143260
inclination: 98.1918°
perigee height: 703 km
apogee height: 909 km
right ascension of ascending node: 187.4374°
argument of perigee: 107.2334°
revolutions per day: 14.25630827
mean anomaly at epoch: 26.3645°
orbit number at epoch: 64249

The dashed part of the orbit path shows where the satellite is in the earth's shadow,  

DLR